TimeEST,TemperatureF,Dew PointF,Humidity,Sea Level PressureIn,VisibilityMPH,Wind Direction,Wind SpeedMPH,Gust SpeedMPH,PrecipitationIn,Events,Conditions,WindDirDegrees,DateUTC
12:15 AM,13.1,7.2,77,30.20,10.0,SW,4.6,-,N/A,,Clear,220,2012-11-27 05:15:00
12:35 AM,13.8,8.6,80,30.20,10.0,SW,3.5,-,N/A,,Clear,220,2012-11-27 05:35:00
12:55 AM,14.7,8.8,77,30.20,10.0,Calm,Calm,-,N/A,,Clear,0,2012-11-27 05:55:00
1:15 AM,13.8,8.1,78,30.21,10.0,Calm,Calm,-,N/A,,Clear,0,2012-11-27 06:15:00
1:35 AM,12.7,7.2,78,30.21,10.0,Calm,Calm,-,N/A,,Scattered Clouds,0,2012-11-27 06:35:00
1:55 AM,12.6,7.2,79,30.22,10.0,Calm,Calm,-,N/A,,Scattered Clouds,0,2012-11-27 06:55:00
2:15 AM,11.7,6.3,79,30.23,10.0,Calm,Calm,-,N/A,,Scattered Clouds,0,2012-11-27 07:15:00
2:55 AM,14.4,8.2,77,30.23,10.0,SW,6.9,-,N/A,,Mostly Cloudy,220,2012-11-27 07:55:00
3:15 AM,15.4,9.5,77,30.22,10.0,SW,5.8,-,N/A,,Overcast,230,2012-11-27 08:15:00
3:35 AM,16.5,10.2,76,30.22,10.0,SSW,4.6,-,N/A,,Overcast,210,2012-11-27 08:35:00
3:55 AM,18.5,11.8,75,30.22,10.0,South,3.5,-,N/A,,Overcast,190,2012-11-27 08:55:00
4:15 AM,18.9,11.3,72,30.22,10.0,Calm,Calm,-,N/A,,Overcast,0,2012-11-27 09:15:00
4:35 AM,18.9,12.0,75,30.22,10.0,Calm,Calm,-,N/A,,Overcast,0,2012-11-27 09:35:00
4:55 AM,18.3,11.7,75,30.22,10.0,SSW,3.5,-,N/A,,Overcast,210,2012-11-27 09:55:00
5:15 AM,18.7,12.2,76,30.22,10.0,SSW,3.5,-,N/A,,Overcast,210,2012-11-27 10:15:00
5:35 AM,19.4,12.6,75,30.21,10.0,Calm,Calm,-,N/A,,Overcast,0,2012-11-27 10:35:00
5:55 AM,20.1,13.1,74,30.22,10.0,Calm,Calm,-,N/A,,Overcast,0,2012-11-27 10:55:00
6:15 AM,20.7,13.1,73,30.22,10.0,South,3.5,-,N/A,,Overcast,190,2012-11-27 11:15:00
6:55 AM,20.7,13.8,75,30.23,10.0,South,3.5,-,N/A,,Overcast,190,2012-11-27 11:55:00
7:35 AM,21.0,14.0,74,30.24,10.0,Calm,Calm,-,N/A,,Overcast,0,2012-11-27 12:35:00
7:55 AM,21.7,14.5,74,30.24,10.0,SSW,3.5,-,N/A,,Overcast,210,2012-11-27 12:55:00
8:15 AM,22.1,14.5,73,30.25,10.0,Calm,Calm,-,N/A,,Overcast,0,2012-11-27 13:15:00
8:35 AM,22.8,15.6,74,30.25,4.0,Calm,Calm,-,N/A,Snow,Light Snow,0,2012-11-27 13:35:00
8:55 AM,23.5,16.5,75,30.25,3.0,Calm,Calm,-,N/A,Snow,Light Snow,0,2012-11-27 13:55:00
9:15 AM,24.1,17.4,76,30.25,2.5,SSW,3.5,-,N/A,Snow,Light Snow,210,2012-11-27 14:15:00
9:35 AM,24.8,17.6,74,30.25,4.0,Calm,Calm,-,N/A,Snow,Light Snow,0,2012-11-27 14:35:00
9:55 AM,25.5,18.0,73,30.26,5.0,Calm,Calm,-,N/A,Snow,Light Snow,0,2012-11-27 14:55:00
10:35 AM,27.3,19.2,72,30.26,2.0,Calm,Calm,-,N/A,Snow,Light Snow,0,2012-11-27 15:35:00
10:55 AM,27.5,19.8,73,30.25,3.0,Calm,Calm,-,N/A,Snow,Light Snow,0,2012-11-27 15:55:00
11:15 AM,27.5,20.1,74,30.26,10.0,Calm,Calm,-,N/A,,Overcast,0,2012-11-27 16:15:00
11:35 AM,28.9,20.7,71,30.25,7.0,Calm,Calm,-,N/A,,Overcast,0,2012-11-27 16:35:00
11:55 AM,29.5,20.8,70,30.25,7.0,SE,3.5,-,N/A,Snow,Light Snow,130,2012-11-27 16:55:00
12:15 PM,30.2,20.8,68,30.24,10.0,SE,3.5,-,N/A,,Overcast,140,2012-11-27 17:15:00
12:35 PM,30.6,20.5,66,30.24,10.0,South,3.5,-,N/A,,Overcast,180,2012-11-27 17:35:00
12:55 PM,30.9,21.0,67,30.24,10.0,Calm,Calm,-,N/A,,Overcast,0,2012-11-27 17:55:00
1:15 PM,31.6,20.7,64,30.23,10.0,Calm,Calm,-,N/A,,Overcast,0,2012-11-27 18:15:00
1:35 PM,31.8,21.2,65,30.23,10.0,Calm,Calm,-,N/A,,Overcast,0,2012-11-27 18:35:00
1:55 PM,32.0,21.2,64,30.23,10.0,Calm,Calm,-,N/A,,Overcast,0,2012-11-27 18:55:00
2:15 PM,32.0,21.2,64,30.23,10.0,Calm,Calm,-,N/A,,Overcast,0,2012-11-27 19:15:00
2:35 PM,32.0,21.6,65,30.23,10.0,Calm,Calm,-,N/A,,Overcast,0,2012-11-27 19:35:00
2:55 PM,32.0,21.7,66,30.23,10.0,Calm,Calm,-,N/A,,Overcast,0,2012-11-27 19:55:00
3:15 PM,31.8,21.6,66,30.23,10.0,Calm,Calm,-,N/A,,Overcast,0,2012-11-27 20:15:00
3:35 PM,30.4,21.6,70,30.23,10.0,Calm,Calm,-,N/A,,Overcast,0,2012-11-27 20:35:00
3:55 PM,30.4,21.0,68,30.23,10.0,Calm,Calm,-,N/A,,Mostly Cloudy,0,2012-11-27 20:55:00
4:15 PM,29.7,21.4,71,30.22,10.0,North,3.5,-,N/A,,Scattered Clouds,350,2012-11-27 21:15:00
4:35 PM,29.8,21.7,72,30.23,10.0,Calm,Calm,-,N/A,,Clear,0,2012-11-27 21:35:00
4:55 PM,26.8,18.7,72,30.24,10.0,Calm,Calm,-,N/A,,Clear,0,2012-11-27 21:55:00
5:15 PM,27.3,19.8,73,30.24,10.0,Calm,Calm,-,N/A,,Clear,0,2012-11-27 22:15:00
5:35 PM,24.3,19.6,82,30.25,10.0,Calm,Calm,-,N/A,,Clear,0,2012-11-27 22:35:00
5:55 PM,26.1,19.0,75,30.25,10.0,Calm,Calm,-,N/A,,Clear,0,2012-11-27 22:55:00
6:15 PM,25.9,21.0,82,30.25,10.0,Calm,Calm,-,N/A,,Clear,0,2012-11-27 23:15:00
6:35 PM,24.8,19.9,82,30.25,10.0,SW,4.6,-,N/A,,Clear,230,2012-11-27 23:35:00
6:55 PM,24.3,19.4,82,30.26,10.0,SW,4.6,-,N/A,,Clear,230,2012-11-27 23:55:00
7:15 PM,18.1,12.4,78,30.26,10.0,Calm,Calm,-,N/A,,Clear,0,2012-11-28 00:15:00
7:35 PM,21.6,16.9,82,30.25,5.0,Calm,Calm,-,N/A,,Clear,0,2012-11-28 00:35:00
7:55 PM,22.1,17.2,82,30.26,7.0,WSW,3.5,-,N/A,,Clear,250,2012-11-28 00:55:00
8:15 PM,21.6,16.5,81,30.26,7.0,WSW,3.5,-,N/A,,Clear,240,2012-11-28 01:15:00
8:35 PM,22.5,17.6,82,30.26,7.0,SW,3.5,-,N/A,,Clear,230,2012-11-28 01:35:00
8:55 PM,22.1,17.1,81,30.26,7.0,SW,3.5,-,N/A,,Clear,220,2012-11-28 01:55:00
9:15 PM,19.0,13.8,80,30.26,7.0,Calm,Calm,-,N/A,,Clear,0,2012-11-28 02:15:00
9:35 PM,20.8,15.8,81,30.25,5.0,SW,3.5,-,N/A,,Haze,220,2012-11-28 02:35:00
9:55 PM,19.2,14.0,80,30.25,7.0,SW,3.5,-,N/A,,Clear,230,2012-11-28 02:55:00
10:15 PM,18.5,13.1,79,30.26,7.0,SW,3.5,-,N/A,,Clear,220,2012-11-28 03:15:00
10:35 PM,19.2,14.0,80,30.25,7.0,SW,3.5,-,N/A,,Clear,220,2012-11-28 03:35:00
10:55 PM,18.3,12.7,79,30.25,7.0,Calm,Calm,-,N/A,,Clear,0,2012-11-28 03:55:00
11:15 PM,17.8,12.6,80,30.25,7.0,SW,3.5,-,N/A,,Clear,230,2012-11-28 04:15:00
11:35 PM,16.7,11.1,79,30.24,7.0,SSW,4.6,-,N/A,,Clear,200,2012-11-28 04:35:00
11:55 PM,17.4,12.0,79,30.24,7.0,SW,3.5,-,N/A,,Clear,230,2012-11-28 04:55:00